Date,TemperatureHighF,TemperatureAvgF,TemperatureLowF,DewpointHighF,DewpointAvgF,DewpointLowF,HumidityHigh,HumidityAvg,HumidityLow,PressureMaxIn,PressureMinIn,WindSpeedMaxMPH,WindSpeedAvgMPH,GustSpeedMaxMPH,PrecipitationSumIn
2013-1-1,38.7,31.5,19.8,9.9,2.8,-8.8,35,29,24,29.74,29.53,13,3,17,0.00
2013-1-2,29.8,21.0,11.8,0.7,-6.6,-14.3,33,28,25,29.91,29.71,13,2,13,0.00
2013-1-3,20.1,10.0,6.6,-8.7,-16.3,-18.9,29,28,25,29.94,29.88,6,1,10,0.00
2013-1-4,38.5,32.4,20.5,9.0,5.7,-2.2,42,32,29,29.77,29.62,17,4,17,0.00
2013-1-5,41.9,33.2,26.1,11.0,4.9,1.4,36,30,23,30.06,29.65,9,2,11,0.00
2013-1-6,43.0,34.3,27.0,14.2,9.1,3.0,45,35,28,30.03,29.74,9,2,15,0.00
2013-1-7,41.5,33.8,27.9,14.0,8.5,1.2,43,35,24,30.21,29.77,8,1,10,0.00
2013-1-8,46.6,36.7,28.2,14.1,11.2,8.1,48,35,24,30.18,30.06,13,3,15,0.00
2013-1-9,43.7,37.6,27.7,19.0,13.0,8.8,50,37,28,30.21,29.80,10,2,13,0.00
2013-1-10,47.5,42.0,34.2,13.2,8.8,4.5,30,25,22,30.36,29.83,17,3,20,0.00
2013-1-11,41.2,36.3,29.3,25.8,11.7,4.1,60,36,30,30.33,30.03,5,0,6,0.00
2013-1-12,45.1,42.0,38.5,38.5,34.9,25.8,80,76,60,30.06,29.94,6,0,6,0.00
2013-1-13,53.1,47.8,43.2,47.3,41.7,37.0,88,80,57,29.97,29.80,8,1,13,0.00
2013-1-14,61.5,53.1,42.6,45.5,30.0,9.4,74,45,21,30.06,29.65,10,4,17,0.00
2013-1-15,42.6,39.4,35.6,10.6,8.2,5.1,30,27,26,30.12,30.03,5,0,8,0.00
2013-1-16,35.6,33.7,31.3,26.9,18.3,4.3,75,56,27,30.06,29.65,4,0,5,0.00
2013-1-17,42.3,35.4,30.0,27.5,16.8,0.9,76,50,28,29.91,29.65,10,1,11,0.12
2013-1-18,30.0,23.7,18.3,0.9,-7.2,-11.6,28,25,23,30.27,29.88,8,2,14,0.00
2013-1-19,49.3,37.9,24.1,13.6,6.2,-7.5,33,26,21,30.21,29.71,17,5,23,0.00
2013-1-20,54.3,42.3,29.5,17.7,10.1,-3.7,36,27,20,29.74,29.35,21,5,26,0.00
2013-1-21,30.2,25.9,22.1,5.7,-3.5,-8.3,45,28,23,29.91,29.62,8,3,11,0.00
2013-1-22,27.9,21.4,13.8,5.7,-3.4,-14.1,49,34,24,29.88,29.56,10,3,17,0.00
2013-1-23,18.1,12.3,7.5,-11.4,-15.0,-19.5,29,28,25,29.94,29.85,12,2,14,0.00
2013-1-24,21.4,11.7,3.2,-9.1,-16.3,-23.2,27,26,25,30.00,29.85,10,2,15,0.00
2013-1-25,25.7,17.2,8.6,-5.6,-11.9,-18.5,33,26,24,30.12,29.88,11,3,13,0.00
2013-1-26,25.3,18.2,12.2,-2.3,-8.0,-13.8,39,31,24,30.03,29.83,10,2,13,0.00
2013-1-27,31.8,21.5,13.3,-1.8,-8.9,-14.4,29,25,23,30.27,30.03,13,3,15,0.00
2013-1-28,32.4,26.0,19.8,18.4,0.4,-10.4,62,35,23,30.27,29.83,6,1,8,0.00
2013-1-29,35.1,31.1,26.1,23.4,16.7,13.9,63,55,46,30.00,29.83,4,0,5,0.04
2013-1-30,61.0,49.1,34.9,51.7,38.9,23.6,85,69,45,29.97,29.29,13,3,14,0.08
2013-1-31,61.0,48.9,31.3,51.1,25.4,-0.4,73,43,22,29.38,28.79,22,6,26,0.28